Change the Weather History Date:

Thursday, February 21, 2013

  Actual Average Record
Temperature  
Mean Temperature 26 °F -  
Max Temperature 30 °F 41 °F 60 °F (1989)
Min Temperature 23 °F 20 °F -9 °F (2015)
Degree Days  
Heating Degree Days 38    
Moisture  
Dew Point -5 °F    
Average Humidity 28    
Maximum Humidity 37    
Minimum Humidity 12    
Precipitation  
Precipitation 0.00 in - - ()
Sea Level Pressure  
Sea Level Pressure 29.93 in    
Wind  
Wind Speed 13 mph (WNW)    
Max Wind Speed 22 mph    
Max Gust Speed 32 mph    
Visibility 10 miles    
Events      
Averages and records for this station are not official NWS values.
T = Trace of Precipitation, MM = Missing Value Source: NWS Daily Summary

Daily Weather History Graph

Daily Weather History Graph

Search for Another Location

Airport or City:

Trip Planner

Search our weather history database for the weather conditions in past years. The results will help you decide how hot, cold, wet, or windy it might be!

Date:

Astronomy

Feb. 21, 2013 Rise Set
Actual Time 6:32 AM EST 5:25 PM EST
Civil Twilight 6:04 AM EST 5:53 PM EST
Nautical Twilight 5:31 AM EST 6:26 PM EST
Astronomical Twilight 4:59 AM EST 6:59 PM EST
Moon 1:34 PM EST (2/21) 3:38 AM EST (2/21)
Length of Visible Light 11h 49m
Length of Day
10h 52m
Waxing Gibbous, 83% of the Moon is Illuminated
Feb 21
Waxing Gibbous
Feb 25
Full
Mar 4
Last Quarter
Mar 11
New
Mar 19
First Quarter

Hourly Weather History & Observations

Time (EST) Temp. Windchill Dew Point Humidity Pressure Visibility Wind Dir Wind Speed Gust Speed Precip Events Conditions
12:56 AM 25.0 °F 14.8 °F -2.0 °F 31% 29.82 in 10.0 mi West 10.4 mph 18.4 mph N/A   Partly Cloudy
1:56 AM 26.1 °F 15.6 °F -0.9 °F 31% 29.82 in 10.0 mi WNW 11.5 mph - N/A   Scattered Clouds
2:56 AM 26.1 °F 13.6 °F -0.9 °F 31% 29.81 in 10.0 mi West 16.1 mph 25.3 mph N/A   Overcast
3:56 AM 25.0 °F 15.5 °F -0.9 °F 33% 29.82 in 10.0 mi West 9.2 mph - N/A   Clear
4:56 AM 24.1 °F 12.0 °F -2.0 °F 32% 29.83 in 10.0 mi West 13.8 mph 25.3 mph N/A   Clear
5:56 AM 24.1 °F 17.0 °F -2.0 °F 32% 29.84 in 10.0 mi West 5.8 mph - N/A   Clear
6:56 AM 23.0 °F 13.1 °F -2.0 °F 34% 29.85 in 10.0 mi West 9.2 mph - N/A   Scattered Clouds
7:56 AM 24.1 °F 10.1 °F -0.9 °F 34% 29.86 in 10.0 mi WNW 18.4 mph 29.9 mph N/A   Clear
8:56 AM 24.1 °F 10.6 °F -0.9 °F 34% 29.86 in 10.0 mi West 17.3 mph 28.8 mph N/A   Clear
9:56 AM 26.1 °F 13.1 °F 1.9 °F 35% 29.85 in 10.0 mi WNW 17.3 mph 24.2 mph N/A   Clear
10:56 AM 28.4 °F 18.0 °F 3.2 °F 34% 29.81 in 10.0 mi NW 12.7 mph 26.5 mph N/A   Scattered Clouds
11:56 AM 28.9 °F 17.3 °F 5.0 °F 36% 29.85 in 10.0 mi WNW 16.1 mph 23.0 mph N/A   Partly Cloudy
12:56 PM 30.0 °F 17.2 °F 6.1 °F 36% 29.86 in 10.0 mi NW 20.7 mph 28.8 mph N/A   Partly Cloudy
1:56 PM 30.9 °F 19.8 °F 7.0 °F 37% 29.86 in 10.0 mi NW 16.1 mph 21.9 mph N/A   Partly Cloudy
2:56 PM 30.9 °F 18.4 °F 7.0 °F 37% 29.88 in 10.0 mi NW 20.7 mph 28.8 mph N/A   Partly Cloudy
3:56 PM 30.0 °F 17.5 °F 6.1 °F 36% 29.91 in 10.0 mi NW 19.6 mph 27.6 mph N/A   Scattered Clouds
4:56 PM 28.9 °F 16.1 °F 5.0 °F 36% 29.96 in 10.0 mi NW 19.6 mph 29.9 mph N/A   Overcast
5:56 PM 27.0 °F 12.8 °F -18.0 °F 13% 30.01 in 10.0 mi NW 21.9 mph 32.2 mph N/A   Mostly Cloudy
6:56 PM 26.1 °F 14.5 °F -20.9 °F 12% 30.06 in 10.0 mi NW 13.8 mph 21.9 mph N/A   Mostly Cloudy
7:56 PM 25.0 °F 12.6 °F -20.9 °F 13% 30.10 in 10.0 mi NW 15.0 mph 24.2 mph N/A   Clear
8:56 PM 24.1 °F 12.5 °F -20.9 °F 13% 30.14 in 10.0 mi NW 12.7 mph - N/A   Clear
9:56 PM 24.1 °F 15.2 °F -20.0 °F 14% 30.16 in 10.0 mi NW 8.1 mph - N/A   Clear
10:56 PM 23.0 °F 13.1 °F -18.9 °F 15% 30.19 in 10.0 mi WNW 9.2 mph - N/A   Clear
11:56 PM 24.1 °F 13.7 °F -18.0 °F 15% 30.24 in 10.0 mi WNW 10.4 mph - N/A   Clear